Location: İstanbul
(41.0082°N, 28.9784°E)
Time: 02:02:40
(UTC+02:00)

Oscar 11 - Pass Details

Date: 22 October 2021
Orbit: 614 x 623 km, 97.6° (Epoch: 01 December)

Event Time Altitude Azimuth Distance (km) Brightness Sun altitude
Rises 05:27:54 0° 31° (NNE) 2,903 11.0 -22.4°
Reaches altitude 10° 05:30:53 10° 54° (NE) 1,993 10.5 -21.9°
Maximum altitude 05:33:33 16° 92° (E) 1,639 10.2 -21.4°
Drops below altitude 10° 05:36:11 10° 130° (SE) 1,987 10.3 -20.9°
Sets 05:39:09 0° 152° (SSE) 2,888 10.8 -20.3°
